Time,TemperatureF,DewpointF,PressureIn,WindDirection,WindDirectionDegrees,WindSpeedMPH,WindSpeedGustMPH,Humidity,HourlyPrecipIn,Conditions,Clouds,dailyrainin,SolarRadiationWatts/m^2,SoftwareType,DateUTC
2013-01-02 00:11:00,50.2,45.2,30.15,NE,39,1.0,1.0,83,0.00,,,0.00,0,Wunderground v.1.15,2013-01-01 22:11:00,
2013-01-02 00:21:00,50.2,45.2,30.15,NE,39,0.0,0.0,83,0.00,,,0.00,0,Wunderground v.1.15,2013-01-01 22:21:00,
2013-01-02 00:36:00,50.2,45.2,30.15,NE,39,0.0,0.0,83,0.00,,,0.00,0,Wunderground v.1.15,2013-01-01 22:36:00,
2013-01-02 00:46:00,50.0,45.4,30.15,NE,39,0.0,0.0,84,0.00,,,0.00,0,Wunderground v.1.15,2013-01-01 22:46:00,
2013-01-02 00:56:00,50.0,45.4,30.15,NE,39,0.0,0.0,84,0.00,,,0.00,0,Wunderground v.1.15,2013-01-01 22:56:00,
2013-01-02 01:26:00,49.6,45.3,30.15,NE,39,0.0,0.0,85,0.00,,,0.00,0,Wunderground v.1.15,2013-01-01 23:26:00,
2013-01-02 01:46:00,49.3,45.0,30.15,NE,39,0.0,0.0,85,0.00,,,0.00,0,Wunderground v.1.15,2013-01-01 23:46:00,
2013-01-02 02:26:00,49.0,44.7,30.16,NE,39,0.0,0.0,85,0.00,,,0.00,0,Wunderground v.1.15,2013-01-02 00:26:00,
2013-01-02 02:40:00,48.7,44.7,30.16,NE,39,1.0,1.0,86,0.00,,,0.00,0,Wunderground v.1.15,2013-01-02 00:40:00,
2013-01-02 02:51:00,48.7,44.7,30.16,NE,39,0.0,0.0,86,0.00,,,0.00,0,Wunderground v.1.15,2013-01-02 00:51:00,
2013-01-02 03:01:00,48.5,44.5,30.16,NE,39,0.0,0.0,86,0.00,,,0.00,0,Wunderground v.1.15,2013-01-02 01:01:00,
2013-01-02 03:11:00,48.3,44.3,30.16,NE,39,0.0,0.0,86,0.00,,,0.00,0,Wunderground v.1.15,2013-01-02 01:11:00,
2013-01-02 03:26:00,48.2,45.7,30.16,NE,39,0.0,0.0,91,0.00,,,0.00,0,Wunderground v.1.15,2013-01-02 01:26:00,
2013-01-02 03:36:00,48.1,44.4,30.16,NE,39,0.0,0.0,87,0.00,,,0.00,0,Wunderground v.1.15,2013-01-02 01:36:00,
2013-01-02 04:11:00,47.6,43.9,30.16,NE,39,0.0,0.0,87,0.00,,,0.00,0,Wunderground v.1.15,2013-01-02 02:11:00,
2013-01-02 04:36:00,47.6,44.2,30.16,NE,39,0.0,0.0,88,0.00,,,0.00,0,Wunderground v.1.15,2013-01-02 02:36:00,
2013-01-02 05:11:00,47.3,43.9,30.16,NE,39,0.0,0.0,88,0.00,,,0.00,0,Wunderground v.1.15,2013-01-02 03:11:00,
2013-01-02 05:26:00,47.3,43.9,30.16,NE,39,0.0,0.0,88,0.00,,,0.00,0,Wunderground v.1.15,2013-01-02 03:26:00,
2013-01-02 05:36:00,47.3,43.9,30.16,NE,39,0.0,0.0,88,0.00,,,0.00,0,Wunderground v.1.15,2013-01-02 03:36:00,
2013-01-02 05:56:00,47.0,43.6,30.17,NE,39,0.0,1.0,88,0.00,,,0.00,0,Wunderground v.1.15,2013-01-02 03:56:00,
2013-01-02 06:05:00,46.9,43.5,30.17,NE,39,0.0,0.0,88,0.00,,,0.00,0,Wunderground v.1.15,2013-01-02 04:05:00,
2013-01-02 06:31:00,46.7,43.3,30.18,NE,39,0.0,0.0,88,0.00,,,0.00,0,Wunderground v.1.15,2013-01-02 04:31:00,
2013-01-02 06:41:00,46.8,43.4,30.18,NE,39,1.0,2.0,88,0.00,,,0.00,0,Wunderground v.1.15,2013-01-02 04:41:00,
2013-01-02 06:51:00,46.9,43.5,30.18,NE,39,0.0,0.0,88,0.00,,,0.00,0,Wunderground v.1.15,2013-01-02 04:51:00,
2013-01-02 07:10:00,47.3,43.9,30.19,NE,39,0.0,0.0,88,0.00,,,0.00,0,Wunderground v.1.15,2013-01-02 05:10:00,
2013-01-02 07:26:00,47.6,44.2,30.19,NE,39,0.0,0.0,88,0.00,,,0.00,0,Wunderground v.1.15,2013-01-02 05:26:00,
2013-01-02 07:36:00,47.8,44.4,30.19,NE,39,0.0,0.0,88,0.00,,,0.00,0,Wunderground v.1.15,2013-01-02 05:36:00,
2013-01-02 07:46:00,47.8,44.4,30.19,NE,39,0.0,0.0,88,0.00,,,0.00,0,Wunderground v.1.15,2013-01-02 05:46:00,
2013-01-02 08:11:00,48.6,45.2,30.20,NE,39,0.0,0.0,88,0.00,,,0.00,12,Wunderground v.1.15,2013-01-02 06:11:00,
2013-01-02 08:36:00,48.9,45.2,30.20,NE,39,0.0,0.0,87,0.00,,,0.00,28,Wunderground v.1.15,2013-01-02 06:36:00,
2013-01-02 08:46:00,49.0,45.0,30.20,NE,39,0.0,0.0,86,0.00,,,0.00,33,Wunderground v.1.15,2013-01-02 06:46:00,
2013-01-02 09:11:00,49.6,45.3,30.21,NE,39,0.0,0.0,85,0.00,,,0.00,149,Wunderground v.1.15,2013-01-02 07:11:00,
2013-01-02 09:46:00,52.2,46.9,30.22,NE,39,0.0,0.0,82,0.00,,,0.00,237,Wunderground v.1.15,2013-01-02 07:46:00,
2013-01-02 09:56:00,53.1,47.1,30.22,NE,39,0.0,0.0,80,0.00,,,0.00,260,Wunderground v.1.15,2013-01-02 07:56:00,
2013-01-02 10:11:00,54.3,47.2,30.22,NE,39,0.0,0.0,77,0.00,,,0.00,267,Wunderground v.1.15,2013-01-02 08:11:00,
2013-01-02 10:21:00,55.5,48.4,30.23,NE,39,0.0,0.0,77,0.00,,,0.00,311,Wunderground v.1.15,2013-01-02 08:21:00,
2013-01-02 10:36:00,56.4,48.2,30.23,NE,39,0.0,0.0,74,0.00,,,0.00,336,Wunderground v.1.15,2013-01-02 08:36:00,
2013-01-02 10:46:00,56.6,48.0,30.23,NE,39,0.0,0.0,73,0.00,,,0.00,348,Wunderground v.1.15,2013-01-02 08:46:00,
2013-01-02 11:11:00,57.1,48.2,30.23,NE,39,1.0,3.0,72,0.00,,,0.00,399,Wunderground v.1.15,2013-01-02 09:11:00,
2013-01-02 11:26:00,57.8,49.2,30.23,NE,39,0.0,1.0,73,0.00,,,0.00,417,Wunderground v.1.15,2013-01-02 09:26:00,
2013-01-02 11:36:00,57.6,49.0,30.23,NE,39,1.0,1.0,73,0.00,,,0.00,431,Wunderground v.1.15,2013-01-02 09:36:00,
2013-01-02 11:46:00,58.2,49.2,30.23,NE,39,0.0,1.0,72,0.00,,,0.00,445,Wunderground v.1.15,2013-01-02 09:46:00,
2013-01-02 11:56:00,58.1,49.1,30.23,NE,39,1.0,2.0,72,0.00,,,0.00,450,Wunderground v.1.15,2013-01-02 09:56:00,
2013-01-02 12:06:00,58.2,49.2,30.23,NE,39,1.0,1.0,72,0.00,,,0.00,457,Wunderground v.1.15,2013-01-02 10:06:00,
2013-01-02 12:16:00,58.2,49.2,30.23,NE,39,1.0,1.0,72,0.00,,,0.00,461,Wunderground v.1.15,2013-01-02 10:16:00,
2013-01-02 12:31:00,58.6,49.6,30.22,NE,39,1.0,1.0,72,0.00,,,0.00,466,Wunderground v.1.15,2013-01-02 10:31:00,
2013-01-02 12:51:00,58.6,49.6,30.22,NE,39,0.0,0.0,72,0.00,,,0.00,475,Wunderground v.1.15,2013-01-02 10:51:00,
2013-01-02 15:05:00,60.2,49.2,30.21,NE,39,1.0,1.0,67,0.00,,,0.00,311,Wunderground v.1.15,2013-01-02 13:05:00,
2013-01-02 15:15:00,60.1,49.1,30.21,NE,39,2.0,2.0,67,0.00,,,0.00,290,Wunderground v.1.15,2013-01-02 13:15:00,
2013-01-02 15:55:00,59.6,49.4,30.22,NE,39,1.0,2.0,69,0.00,,,0.00,183,Wunderground v.1.15,2013-01-02 13:55:00,
2013-01-02 16:35:00,58.3,48.9,30.22,NE,39,1.0,1.0,71,0.00,,,0.00,65,Wunderground v.1.15,2013-01-02 14:35:00,
2013-01-02 17:00:00,57.3,49.1,30.23,NE,39,1.0,5.0,74,0.00,,,0.00,16,Wunderground v.1.15,2013-01-02 15:00:00,
2013-01-02 17:10:00,57.0,48.8,30.23,NE,39,1.0,3.0,74,0.00,,,0.00,9,Wunderground v.1.15,2013-01-02 15:10:00,
2013-01-02 17:40:00,56.4,48.9,30.24,NE,39,0.0,0.0,76,0.00,,,0.00,0,Wunderground v.1.15,2013-01-02 15:40:00,
2013-01-02 18:20:00,55.7,49.3,30.25,NE,39,1.0,1.0,79,0.00,,,0.00,0,Wunderground v.1.15,2013-01-02 16:20:00,
2013-01-02 18:45:00,55.4,49.3,30.25,NE,39,0.0,1.0,80,0.00,,,0.00,0,Wunderground v.1.15,2013-01-02 16:45:00,
2013-01-02 18:55:00,55.3,49.2,30.26,NE,39,0.0,1.0,80,0.00,,,0.00,0,Wunderground v.1.15,2013-01-02 16:55:00,
2013-01-02 19:45:00,54.8,49.1,30.28,NE,39,0.0,1.0,81,0.00,,,0.00,0,Wunderground v.1.15,2013-01-02 17:45:00,
2013-01-02 20:35:00,54.1,48.7,30.29,NE,39,0.0,0.0,82,0.00,,,0.00,0,Wunderground v.1.15,2013-01-02 18:35:00,
2013-01-02 21:00:00,54.0,49.3,30.29,NE,39,0.0,0.0,84,0.00,,,0.00,0,Wunderground v.1.15,2013-01-02 19:00:00,
2013-01-02 21:10:00,53.9,49.2,30.29,NE,39,1.0,2.0,84,0.00,,,0.00,0,Wunderground v.1.15,2013-01-02 19:10:00,
2013-01-02 22:15:00,53.2,48.5,30.30,NE,39,0.0,2.0,84,0.00,,,0.00,0,Wunderground v.1.15,2013-01-02 20:15:00,